Terminal Aerodrome Forecast
Issued by NWS Pittsburgh, PA

Current Version | Previous Version | Graphics & Text | Print | Product List | Glossary On
Versions: 1 2 3 4 5 6 7 8 9 10 11 12 13 14 15 16 17 18 19 20 21 22 23 24 25 26 27 28 29 30 31 32 33
671
FTUS41 KPBZ 282100 AAB
TAFPIT
TAF AMD
KPIT 282100Z 2821/2924 15011G20KT P6SM SCT035 BKN100
     FM290000 10008KT P6SM BKN060 WS020/13040KT
     FM290700 09010G20KT P6SM -RA OVC020
     FM291400 09012G22KT P6SM VCSH OVC015=

USA.gov is the U.S. government's official web portal to all federal, state and local government web resources and services.